STARLINK-4715, 53801

Orbit data source: Space-Track

STARLINK-4715, 53801 is a payload satellite owned by SpaceX/Seattle (US) in LEO that was launched on Sun, 11 Sep 2022 UTC via an FALCON 9 launch vehicle from the Air Force Eastern Test Range (AFETR). Payload-class satellites include a variety of spacecraft equipped with specific instruments for various scientific and technological missions. These include communications satellites like Starlink; space stations such as the ISS; scientific satellites like the Hubble; Earth observation satellites from companies like Planet Labs, Umbra, and HawkEye 360; GPS; miniature CubeSats for education and research; and military/defense satellites.

Loading next visibility...
Identifier
53801, 2022-111AE
Orbit
LEO
Country
Flag of USUS
Related business
Manufacturer
SpaceX/Seattle
Mission
Operational Commercial Communications
Bus & Motor
STARLINK, Unknown motor
Mass
305 kg wet, ~290 kg dry
Launch date (UTC)
2022-09-11 (3 years ago)
Launch vehicle
FALCON 9
Launch site
Air Force Eastern Test Range (AFETR)
Object type
Payload
Rocket body
Debris
Shape & HBR
Box + 1 Pan, 4.4 m
Radar Cross Section
13.562 m², Large (>1 m²)

Expand to show TLE details & history
Last TLE update: 20 hours ago

TLE from 20 hours ago
0 STARLINK-4715
1 53801U 22111AE  25258.90664749  .00000804  00000-0  68610-4 0  9998
2 53801  53.2187 328.5066 0001228  88.6099 271.5034 15.08843231167436
Epoch: 2025-09-15T21:45Z
TLE epoch observation values (Epoch: 2025-09-15T21:45:34.343Z)
Latitude
0.00001°
Longitude
7.00893°
Altitude
540.609 km
Speed
7.593 km/s
True Right ascension
21h 54m 01s
True Declination
0° 00' 00"
Sunlit
Object was in full shadow at epoch
Visualization orbit readout
Latitude
Unknown
Longitude
Unknown
Altitude
Unknown
Speed
Unknown
Apparent Right ascension
Unknown
Apparent Declination
Unknown
Sunlit
N/A
Visualization observer readout
Local Sidereal Time
10:27:01
Azimuth
Unknown
Elevation
Unknown
Doppler factor
Unknown
Orbital elements
Apogee altitude
540.828 km
Perigee altitude
539.129 km
Semi-major axis
6,918.115 km
Eccentricity
0.00012
Inclination
53.2187°
RAAN
328.5066°
Arg. of periapsis
88.6099°
True anomaly
271.48933°
Mean anomaly
271.5034°
Eccentric anomaly
271.49637°
Mean motion
3.77191 °/min
Orbital period
95.44 mins
BSTAR
0.00006861
Loading maneuver chart data...
Computing Atmospheric mass density...
Loading historical data...
Loading historical data...
Loading historical data...
Loading historical data...
Loading historical data...
Loading historical data...
Loading historical data...

Documentation

Showing up to 5 results
|